Regional Weather Roundup
Issued by NWS Cleveland, OH

Home | Current Version | Previous Version | Text Only | Print | Product List | Glossary Off
Versions: 1 2 3 4 5 6 7 8 9 10 11 12 13 14 15 16 17 18 19 20 21 22 23 24 25 26 27 28 29 30 31 32 33 34 35 36 37 38 39 40 41 42 43 44 45 46 47 48 49 50

000
ASUS41 KCLE 251802
RWRCLE
OHIO REGIONAL WEATHER ROUNDUP
NATIONAL WEATHER SERVICE CLEVELAND, OH
200 PM EDT MON MAY 25 2015

NOTE: "FAIR" INDICATES FEW OR NO CLOUDS BELOW 12,000 FEET WITH NO
SIGNIFICANT WEATHER AND/OR OBSTRUCTIONS TO VISIBILITY.

OHZ001>008-015>018-024>027-034-035-043-044-251900-
   NORTHWEST OHIO

CITY           SKY/WX    TMP DP  RH WIND       PRES   REMARKS
DEFIANCE       CLOUDY    79  64  60 S23G35    30.01S
FINDLAY        CLOUDY    77  63  61 SW22G35   30.05S
TOLEDO EXPRESS LGT RAIN  77  62  59 SW18G29   30.00F
TOLEDO EXEC    PTSUNNY   80  60  50 SW25G35   30.01F
LIMA           CLOUDY    72  62  71 SW21G30   30.08R
$$

OHZ009>014-019>023-028>033-038-089-251900-
   NORTHEAST OHIO

CITY           SKY/WX    TMP DP  RH WIND       PRES   REMARKS
CLE-HOPKINS    CLOUDY    81  60  48 S17G26    30.07F
CLE-LAKEFRONT  CLOUDY    80  60  50 SW18G31   30.04F
CUY CO. ARPT   CLOUDY    82  63  51 SW12G23   30.07S
LORAIN-ELYRIA  LGT RAIN  80  60  50 SW26G37   30.06S
ASHTABULA      PTSUNNY   80  60  50 SW15G29   30.08F
AKRON-CANTON   PTSUNNY   83  60  45 S20G25    30.12F
WOOSTER        PTSUNNY   83  60  45 S17G25    30.10F
MANSFIELD      PTSUNNY   77  62  59 SW17G24   30.10S
YOUNGSTOWN     PTSUNNY   81  60  48 SW18      30.13F
$$

OHZ042-051>053-060>062-070>072-077>081-251900-
  SOUTHWEST OHIO

CITY           SKY/WX    TMP DP  RH WIND       PRES   REMARKS
CINC-COVINGTON LGT RAIN  70  64  81 SW13G23   30.16R
CINC-LUNKEN    CLOUDY    73  64  73 SW20G31   30.16R
HAMILTON       LGT RAIN  71  65  81 SW10G16   30.16R
DAYTON         CLOUDY    73  64  73 SW20G31   30.14R
WRIGHT-PAT AFB NOT AVBL
DAYTON GENERAL CLOUDY    71  63  75 SW15G24   30.14S
WILMINGTON     CLOUDY    78  59  51 SW21G31   30.14R
$$

OHZ036-037-039>041-045>050-054>059-063>069-073>076-082>088-251900-
  CENTRAL AND SOUTHEAST OHIO

CITY           SKY/WX    TMP DP  RH WIND       PRES   REMARKS
COLUMBUS       PTSUNNY   81  59  47 SW22G30   30.12S
OSU AIRPORT    LGT RAIN  77  59  53 SW20G35   30.13R
BOLTON FIELD   MOSUNNY   79  61  53 SW23      30.14R
RICKENBACK AFB NOT AVBL
NEWARK         PTSUNNY   82  61  48 SW20G31   30.12S
MARION         CLOUDY    76  61  59 SW25G33   30.11R
LANCASTER      PTSUNNY   83  60  45 SW16G25   30.13F
ZANESVILLE     PTSUNNY   79  59  50 S12       30.15F
NEW PHILLY     MOSUNNY   82  60  47 S14       30.14F
$$


USA.gov is the U.S. government's official web portal to all federal, state and local government web resources and services.